Time,TemperatureF,DewpointF,PressureIn,WindDirection,WindDirectionDegrees,WindSpeedMPH,WindSpeedGustMPH,Humidity,HourlyPrecipIn,Conditions,Clouds,dailyrainin,SoftwareType,DateUTC
2013-07-12 00:32:00,71.0,-99.9,29.95,NNE,30,-999.0,-999.0,-999,0.00,,,-99.99,,2013-07-12 04:32:00,
2013-07-12 00:43:00,71.0,-99.9,29.95,NNE,30,-999.0,-999.0,-999,0.00,,,-99.99,,2013-07-12 04:43:00,
2013-07-12 00:52:00,69.0,-99.9,29.96,NNE,30,-999.0,-999.0,-999,0.00,,,-99.99,,2013-07-12 04:52:00,
2013-07-12 01:32:00,69.0,-99.9,29.96,NNE,30,-999.0,-999.0,-999,0.00,,,-99.99,,2013-07-12 05:32:00,
2013-07-12 01:43:00,69.0,-99.9,29.96,NNE,30,-999.0,-999.0,-999,0.00,,,-99.99,,2013-07-12 05:43:00,
2013-07-12 01:52:00,69.0,-99.9,29.96,NNE,30,-999.0,-999.0,-999,0.00,,,-99.99,,2013-07-12 05:52:00,
2013-07-12 02:33:00,69.0,-99.9,29.96,NNE,30,-999.0,-999.0,-999,0.00,,,-99.99,,2013-07-12 06:33:00,
2013-07-12 02:42:00,69.0,-99.9,29.96,NNE,30,-999.0,-999.0,-999,0.00,,,-99.99,,2013-07-12 06:42:00,
2013-07-12 02:52:00,68.0,-99.9,29.97,NNE,30,-999.0,-999.0,-999,0.00,,,-99.99,,2013-07-12 06:52:00,
2013-07-12 03:33:00,68.0,-99.9,29.97,NNE,30,-999.0,-999.0,-999,0.00,,,-99.99,,2013-07-12 07:33:00,
2013-07-12 03:43:00,68.0,-99.9,29.97,NNE,30,-999.0,-999.0,-999,0.00,,,-99.99,,2013-07-12 07:43:00,
2013-07-12 03:52:00,69.0,-99.9,29.98,East,84,-999.0,7.0,-999,0.00,,,-99.99,,2013-07-12 07:52:00,
2013-07-12 04:32:00,69.0,-99.9,29.98,East,84,-999.0,7.0,-999,0.00,,,-99.99,,2013-07-12 08:32:00,
2013-07-12 04:42:00,69.0,-99.9,29.98,East,84,-999.0,7.0,-999,0.00,,,-99.99,,2013-07-12 08:42:00,
2013-07-12 04:52:00,68.0,-99.9,29.98,East,84,-999.0,-999.0,-999,0.00,,,-99.99,,2013-07-12 08:52:00,
2013-07-12 05:33:00,68.0,-99.9,29.98,East,84,-999.0,-999.0,-999,0.00,,,-99.99,,2013-07-12 09:33:00,
2013-07-12 05:43:00,68.0,-99.9,29.98,East,84,-999.0,-999.0,-999,0.00,,,-99.99,,2013-07-12 09:43:00,
2013-07-12 05:52:00,69.0,-99.9,30.00,SE,129,-999.0,-999.0,-999,0.00,,,-99.99,,2013-07-12 09:52:00,
2013-07-12 06:33:00,69.0,-99.9,30.00,SE,129,-999.0,-999.0,-999,0.00,,,-99.99,,2013-07-12 10:33:00,
2013-07-12 06:43:00,69.0,-99.9,30.00,SE,129,-999.0,-999.0,-999,0.00,,,-99.99,,2013-07-12 10:43:00,
2013-07-12 06:52:00,71.0,-99.9,30.01,East,82,-999.0,-999.0,-999,0.00,,,-99.99,,2013-07-12 10:52:00,
2013-07-12 07:32:00,71.0,-99.9,30.01,East,82,-999.0,-999.0,-999,0.00,,,-99.99,,2013-07-12 11:32:00,
2013-07-12 07:43:00,71.0,-99.9,30.01,East,82,-999.0,-999.0,-999,0.00,,,-99.99,,2013-07-12 11:43:00,
2013-07-12 07:52:00,72.0,-99.9,30.02,SSE,157,-999.0,4.0,-999,0.00,,,-99.99,,2013-07-12 11:52:00,
2013-07-12 08:32:00,72.0,-99.9,30.02,SSE,157,-999.0,4.0,-999,0.00,,,-99.99,,2013-07-12 12:32:00,
2013-07-12 08:43:00,72.0,-99.9,30.02,SSE,157,-999.0,4.0,-999,0.00,,,-99.99,,2013-07-12 12:43:00,
2013-07-12 08:52:00,73.0,-99.9,30.03,SE,136,-999.0,6.0,-999,0.00,,,-99.99,,2013-07-12 12:52:00,
2013-07-12 09:32:00,73.0,-99.9,30.03,SE,136,-999.0,6.0,-999,0.00,,,-99.99,,2013-07-12 13:32:00,
2013-07-12 09:43:00,73.0,-99.9,30.03,SE,136,-999.0,6.0,-999,0.00,,,-99.99,,2013-07-12 13:43:00,
2013-07-12 09:52:00,74.0,-99.9,30.03,NE,43,-999.0,7.0,-999,0.00,,,-99.99,,2013-07-12 13:52:00,
2013-07-12 10:44:00,74.0,-99.9,30.03,NE,43,-999.0,7.0,-999,0.00,,,-99.99,,2013-07-12 14:44:00,
2013-07-12 10:52:00,76.0,-99.9,30.04,ESE,109,-999.0,10.0,-999,0.00,,,-99.99,,2013-07-12 14:52:00,
2013-07-12 11:33:00,76.0,-99.9,30.04,ESE,109,-999.0,10.0,-999,0.00,,,-99.99,,2013-07-12 15:33:00,
2013-07-12 11:43:00,76.0,-99.9,30.04,ESE,109,-999.0,10.0,-999,0.00,,,-99.99,,2013-07-12 15:43:00,
2013-07-12 12:52:00,77.0,-99.9,30.05,SSE,162,4.0,7.0,-999,0.00,,,-99.99,,2013-07-12 16:52:00,
2013-07-12 13:40:00,77.0,-99.9,30.05,SSE,162,4.0,7.0,-999,0.00,,,-99.99,,2013-07-12 17:40:00,
2013-07-12 13:47:00,77.0,-99.9,30.05,SSE,162,4.0,7.0,-999,0.00,,,-99.99,,2013-07-12 17:47:00,
2013-07-12 13:52:00,75.0,-99.9,30.05,SSE,163,3.0,12.0,-999,0.00,,,-99.99,,2013-07-12 17:52:00,
2013-07-12 14:35:00,75.0,-99.9,30.05,SSE,163,3.0,12.0,-999,0.00,,,-99.99,,2013-07-12 18:35:00,
2013-07-12 14:52:00,75.0,-99.9,30.04,East,99,3.0,6.0,-999,0.00,,,-99.99,,2013-07-12 18:52:00,
2013-07-12 15:48:00,75.0,-99.9,30.04,East,99,3.0,6.0,-999,0.00,,,-99.99,,2013-07-12 19:48:00,
2013-07-12 15:52:00,74.0,-99.9,30.03,ESE,117,2.0,7.0,-999,0.00,,,-99.99,,2013-07-12 19:52:00,
2013-07-12 16:35:00,74.0,-99.9,30.03,ESE,117,2.0,7.0,-999,0.00,,,-99.99,,2013-07-12 20:35:00,
2013-07-12 16:47:00,74.0,-99.9,30.03,ESE,117,2.0,7.0,-999,0.00,,,-99.99,,2013-07-12 20:47:00,
2013-07-12 16:52:00,72.0,-99.9,30.04,East,94,-999.0,-999.0,-999,0.03,,,-99.99,,2013-07-12 20:52:00,
2013-07-12 17:36:00,72.0,-99.9,30.04,East,94,-999.0,-999.0,-999,0.03,,,-99.99,,2013-07-12 21:36:00,
2013-07-12 17:50:00,72.0,-99.9,30.04,East,94,-999.0,-999.0,-999,0.03,,,-99.99,,2013-07-12 21:50:00,
2013-07-12 17:52:00,71.0,-99.9,30.05,SSE,156,-999.0,9.0,-999,0.26,,,-99.99,,2013-07-12 21:52:00,
2013-07-12 18:35:00,71.0,-99.9,30.05,SSE,156,-999.0,9.0,-999,0.26,,,-99.99,,2013-07-12 22:35:00,
2013-07-12 18:47:00,71.0,-99.9,30.05,SSE,156,-999.0,9.0,-999,0.26,,,-99.99,,2013-07-12 22:47:00,
2013-07-12 18:52:00,70.0,-99.9,30.04,SE,145,-999.0,6.0,-999,0.57,,,-99.99,,2013-07-12 22:52:00,
2013-07-12 19:37:00,70.0,-99.9,30.04,SE,145,-999.0,6.0,-999,0.57,,,-99.99,,2013-07-12 23:37:00,
2013-07-12 19:45:00,70.0,-99.9,30.04,SE,145,-999.0,6.0,-999,0.57,,,-99.99,,2013-07-12 23:45:00,
2013-07-12 19:52:00,69.0,-99.9,30.05,South,188,5.0,11.0,-999,0.03,,,-99.99,,2013-07-12 23:52:00,
2013-07-12 20:34:00,69.0,-99.9,30.05,South,188,5.0,11.0,-999,0.03,,,-99.99,,2013-07-13 00:34:00,
2013-07-12 20:50:00,69.0,-99.9,30.05,South,188,5.0,11.0,-999,0.03,,,-99.99,,2013-07-13 00:50:00,
2013-07-12 20:52:00,70.0,-99.9,30.06,SSW,193,5.0,7.0,-999,0.01,,,-99.99,,2013-07-13 00:52:00,
2013-07-12 21:41:00,70.0,-99.9,30.06,SSW,193,5.0,7.0,-999,0.01,,,-99.99,,2013-07-13 01:41:00,
2013-07-12 21:50:00,70.0,-99.9,30.06,SSW,193,5.0,7.0,-999,0.01,,,-99.99,,2013-07-13 01:50:00,
2013-07-12 22:52:00,69.0,-99.9,30.08,SSW,192,5.0,10.0,-999,0.01,,,-99.99,,2013-07-13 02:52:00,
2013-07-12 23:38:00,69.0,-99.9,30.08,SSW,192,5.0,10.0,-999,0.01,,,-99.99,,2013-07-13 03:38:00,
2013-07-12 23:47:00,69.0,-99.9,30.08,SSW,192,5.0,10.0,-999,0.01,,,-99.99,,2013-07-13 03:47:00,
2013-07-12 23:52:00,69.0,-99.9,30.09,South,183,4.0,6.0,-999,0.01,,,-99.99,,2013-07-13 03:52:00,